Tiempo cada hora Caucel

Hoy, 24 Enero, Domingo

Tiempo Temperatura Precipitaciones Viento Presión Humedad
00:00 +24°C° 0 mm 3 mps 760 mmHg 87%
01:00 +24°C° 0 mm 3 mps 759 mmHg 90%
02:00 +23°C° 0 mm 2 mps 759 mmHg 93%
03:00 +23°C° 0 mm 2 mps 759 mmHg 96%
04:00 +23°C° 0 mm 2 mps 759 mmHg 96%
05:00 +22°C° 0 mm 3 mps 760 mmHg 96%
06:00 +22°C° 0 mm 3 mps 760 mmHg 96%
07:00 +24°C° 0 mm 3 mps 760 mmHg 91%
08:00 +25°C° 0 mm 3 mps 760 mmHg 86%
09:00 +26°C° 0 mm 3 mps 761 mmHg 81%
10:00 +28°C° 0 mm 3 mps 760 mmHg 72%
11:00 +30°C° 0 mm 3 mps 760 mmHg 63%
12:00 +33°C° 0 mm 3 mps 759 mmHg 54%
13:00 +33°C° 0 mm 3 mps 759 mmHg 52%
14:00 +34°C° 0 mm 4 mps 758 mmHg 50%
15:00 +34°C° 0 mm 4 mps 757 mmHg 48%
16:00 +33°C° 0 mm 4 mps 757 mmHg 53%
17:00 +31°C° 0 mm 3 mps 757 mmHg 58%
18:00 +29°C° 0 mm 3 mps 757 mmHg 63%
19:00 +29°C° 0 mm 3 mps 758 mmHg 68%
20:00 +28°C° 0 mm 3 mps 758 mmHg 73%
21:00 +27°C° 0 mm 3 mps 759 mmHg 78%
22:00 +26°C° 0 mm 3 mps 758 mmHg 81%
23:00 +26°C° 0 mm 3 mps 758 mmHg 84%

Mañana, 25 Enero, Lunes

Tiempo Temperatura Precipitaciones Viento Presión Humedad
00:00 +25°C° 0 mm 3 mps 758 mmHg 88%
01:00 +25°C° 0 mm 3 mps 758 mmHg 89%
02:00 +25°C° 0 mm 3 mps 758 mmHg 90%
03:00 +24°C° 0 mm 3 mps 757 mmHg 92%
04:00 +25°C° 0 mm 3 mps 757 mmHg 91%
05:00 +25°C° 0 mm 4 mps 757 mmHg 90%
06:00 +25°C° 0 mm 4 mps 757 mmHg 89%
07:00 +26°C° 0 mm 4 mps 758 mmHg 84%
08:00 +27°C° 0 mm 4 mps 758 mmHg 78%
09:00 +28°C° 0 mm 5 mps 759 mmHg 73%
10:00 +30°C° 0 mm 5 mps 758 mmHg 66%
11:00 +32°C° 0 mm 5 mps 758 mmHg 58%
12:00 +34°C° 0 mm 5 mps 757 mmHg 51%
13:00 +34°C° 0 mm 4 mps 756 mmHg 49%
14:00 +35°C° 0 mm 4 mps 756 mmHg 47%
15:00 +35°C° 0 mm 4 mps 755 mmHg 45%
16:00 +34°C° 0 mm 4 mps 755 mmHg 49%
17:00 +32°C° 0 mm 4 mps 755 mmHg 53%
18:00 +30°C° 0 mm 3 mps 756 mmHg 56%
19:00 +29°C° 0 mm 3 mps 756 mmHg 61%
20:00 +28°C° 0 mm 3 mps 757 mmHg 66%
21:00 +27°C° 0 mm 3 mps 757 mmHg 71%
22:00 +26°C° 0 mm 3 mps 757 mmHg 76%
23:00 +25°C° 0 mm 3 mps 757 mmHg 81%

Pasado mañana, 26 Enero, Martes

Tiempo Temperatura Precipitaciones Viento Presión Humedad
00:00 +25°C° 0 mm 3 mps 757 mmHg 86%
01:00 +24°C° 0 mm 3 mps 757 mmHg 89%
02:00 +23°C° 0 mm 4 mps 757 mmHg 91%
03:00 +23°C° 0 mm 4 mps 757 mmHg 94%
04:00 +23°C° 0 mm 4 mps 757 mmHg 93%
05:00 +23°C° 0 mm 4 mps 757 mmHg 93%
06:00 +23°C° 0 mm 4 mps 757 mmHg 93%
07:00 +25°C° 0 mm 4 mps 758 mmHg 85%
08:00 +27°C° 0 mm 5 mps 758 mmHg 78%
09:00 +28°C° 0 mm 5 mps 759 mmHg 70%
10:00 +30°C° 0 mm 5 mps 758 mmHg 63%
11:00 +33°C° 0 mm 5 mps 758 mmHg 55%
12:00 +35°C° 0 mm 5 mps 757 mmHg 48%
13:00 +35°C° 0 mm 5 mps 757 mmHg 46%
14:00 +36°C° 0 mm 4 mps 756 mmHg 44%
15:00 +36°C° 0 mm 4 mps 756 mmHg 42%
16:00 +34°C° 0 mm 4 mps 756 mmHg 46%
17:00 +33°C° 0 mm 3 mps 756 mmHg 50%
18:00 +30°C° 0 mm 3 mps 756 mmHg 54%
19:00 +29°C° 0 mm 3 mps 757 mmHg 58%
20:00 +28°C° 0 mm 3 mps 757 mmHg 63%
21:00 +26°C° 0 mm 3 mps 758 mmHg 68%
22:00 +25°C° 0 mm 3 mps 758 mmHg 75%
23:00 +25°C° 0 mm 3 mps 758 mmHg 81%

27 Enero, Miércoles

Tiempo Temperatura Precipitaciones Viento Presión Humedad
00:00 +24°C° 0 mm 3 mps 758 mmHg 88%
01:00 +22°C° 0 mm 3 mps 758 mmHg 90%
02:00 +22°C° 0 mm 3 mps 758 mmHg 92%
03:00 +22°C° 0 mm 3 mps 758 mmHg 94%
04:00 +22°C° 0 mm 3 mps 758 mmHg 95%
05:00 +22°C° 0 mm 3 mps 758 mmHg 95%
06:00 +22°C° 0 mm 3 mps 759 mmHg 96%
07:00 +25°C° 0 mm 4 mps 759 mmHg 88%
08:00 +27°C° 0 mm 4 mps 759 mmHg 80%
09:00 +29°C° 0 mm 5 mps 760 mmHg 73%
10:00 +32°C° 0 mm 5 mps 760 mmHg 63%
11:00 +34°C° 0 mm 5 mps 759 mmHg 53%
12:00 +36°C° 0 mm 5 mps 759 mmHg 43%
13:00 +36°C° 0 mm 4 mps 759 mmHg 42%
14:00 +37°C° 0 mm 3 mps 758 mmHg 40%
15:00 +37°C° 0 mm 2 mps 758 mmHg 38%
16:00 +35°C° 0 mm 3 mps 758 mmHg 49%
17:00 +31°C° 0 mm 3 mps 759 mmHg 60%
18:00 +29°C° 0 mm 3 mps 759 mmHg 71%
19:00 +28°C° 0.4 mm 3 mps 760 mmHg 78%
20:00 +26°C° 0.4 mm 2 mps 760 mmHg 85%
21:00 +25°C° 0.4 mm 2 mps 761 mmHg 91%
22:00 +25°C° 0.8 mm 1 mps 761 mmHg 92%
23:00 +25°C° 0.8 mm 1 mps 761 mmHg 93%

28 Enero, Jueves

Tiempo Temperatura Precipitaciones Viento Presión Humedad
00:00 +25°C° 0.8 mm 1 mps 761 mmHg 94%
01:00 +24°C° 1 mm 1 mps 761 mmHg 95%
02:00 +24°C° 1 mm 1 mps 761 mmHg 96%
03:00 +24°C° 1 mm 1 mps 761 mmHg 97%
04:00 +24°C° 0.8 mm 1 mps 761 mmHg 97%
05:00 +24°C° 0.8 mm 1 mps 761 mmHg 97%
06:00 +24°C° 0.8 mm 1 mps 762 mmHg 97%
07:00 +25°C° 0.2 mm 1 mps 762 mmHg 93%
08:00 +26°C° 0.2 mm 1 mps 763 mmHg 88%
09:00 +27°C° 0.2 mm 1 mps 763 mmHg 84%
10:00 +29°C° 1 mm 1 mps 763 mmHg 77%
11:00 +30°C° 1.1 mm 1 mps 763 mmHg 70%
12:00 +32°C° 1.1 mm 1 mps 763 mmHg 63%

29 Enero, Viernes

Tiempo Temperatura Precipitaciones Viento Presión Humedad
Mostrar más